Simultaneous Nadir Overpasses (SNOs) Predictions

Prediction of SNOs between NPP and PACE Satellite Orbit:

Table of predicted SNOs for the next 14.0 days since TLE Epoch: 8/17/2024
Index Date (NPP) Time (NPP) Lat,Lon (NPP) SZA (NPP ) Date (PACE) Time (PACE) Lat,Lon (PACE) SZA (PACE ) Distance(km) Time Diff (sec)
1 08/17/2024 10:50:19 79.91, -20.47 69.03 08/17/2024 10:50:19 79.91, -20.37 69.01 2.14 0
2 08/19/2024 14:26:02 -79.99, 104.80 110.14 08/19/2024 14:26:54 -80.00, 104.75 110.16 1.17 52
3 08/19/2024 15:16:42 79.84, -86.36 69.58 08/19/2024 15:15:59 79.84, -86.26 69.59 2.07 43
4 08/21/2024 18:52:24 -79.90, 39.15 109.62 08/21/2024 18:52:32 -79.90, 39.08 109.61 1.55 8
5 08/23/2024 22:28:06 79.95, 164.69 71.20 08/23/2024 22:29:04 79.96, 164.54 71.19 3.02 58
6 08/23/2024 23:18:45 -79.78, -26.30 109.12 08/23/2024 23:18:08 -79.78, -26.42 109.08 2.39 37
7 08/26/2024 02:54:30 79.93, 98.28 71.90 08/26/2024 02:54:41 79.93, 98.38 71.87 2.20 11
8 08/28/2024 06:30:11 -79.98,-136.09 107.29 08/28/2024 06:31:10 -79.99,-136.20 107.30 2.22 59
9 08/28/2024 07:20:51 79.83, 32.65 72.46 08/28/2024 07:20:15 79.83, 32.68 72.47 0.51 36



Historial Predications of SNOs between NPP and PACE
